Weather WX

World > North America > United States > North Dakota

Lansford, North Dakota Regional Weather

Lat: 48.63N, Lon: 101.38W
Wx Zone: NDZ004
Feedback

Lansford, ND Regional Weather

Expires:201907192100;;315986
ASUS43 KBIS 192010
RWRND 

NORTH DAKOTA REGIONAL WEATHER ROUNDUP
NATIONAL WEATHER SERVICE BISMARCK ND
300 PM CDT FRI JUL 19 2019

NOTE: "FAIR" INDICATES FEW OR NO CLOUDS BELOW 12,000 FEET WITH NO
SIGNIFICANT WEATHER AND/OR OBSTRUCTIONS TO VISIBILITY.



NDZ004>008-012>016-024-026-027-054-192100-
NORTHEAST NORTH DAKOTA
  
CITY           SKY/WX    TMP DP  RH WIND       PRES   REMARKS
GRAND FORKS    PTSUNNY   81  67  62 W6        29.69F                  
GRND FRKS AFB  MOSUNNY   81  60  49 W12       29.71S                  
DEVILS LAKE    PTSUNNY   76  51  41 W17       29.76S                  
$$
 

SKY/WX - Weather  TMP - Temperature  DP - Dew Point  RH - Relative Humidity
WIND - Wind Direction/Speed PRES - Barometric Pressure VSB - Visibility
WCI - Wind Chill Index E13G22 Wind - East Wind 13 mph/Gusts of 22 mph